User: anonymous   Login
Location: Fours
(44.3167°N, 6.7000°E)
Time: 07:05:35
(UTC+00:00)
Language:

Cosmos 1269 Rocket - Orbit

View from above orbital plane
View from above orbital plane
View from above satellite
View from above satellite

Ground track
Ground track

The orbit data is extracted from the following two-line orbital elements,

1 12443U 81041B   22016.88142279  .00000057  00000-0  29268-4 0  9993
2 12443  74.0558 342.4878 0003882  10.2381 349.8850 14.34786136127917
Epoch (UTC): 16 January 2022 21:09:14
Eccentricity: 0.0003882
inclination: 74.0558°
perigee height: 773 km
apogee height: 778 km
right ascension of ascending node: 342.4878°
argument of perigee: 10.2381°
revolutions per day: 14.34786136
mean anomaly at epoch: 349.8850°
orbit number at epoch: 12791

The dashed part of the orbit path shows where the satellite is in the earth's shadow,  

DLR